Regional Weather Roundup
Issued by NWS

Home | Current Version | Previous Version | Text Only | Print | Product List | Glossary On
Versions: 1 2 3 4 5 6 7 8 9 10 11 12 13 14 15 16 17 18 19 20 21 22 23 24 25 26 27 28 29 30 31 32 33 34 35 36 37 38 39 40 41 42 43 44 45 46 47 48 49 50
000
ASUS42 KTBW 240117
RWRFL
FLORIDA REGIONAL WEATHER ROUNDUP
NATIONAL WEATHER SERVICE TAMPA BAY RUSKIN FL
900 PM EDT THU MAR 23 2017

NOTE: "FAIR" INDICATES FEW OR NO CLOUDS BELOW 12,000 FEET WITH NO
SIGNIFICANT WEATHER AND/OR OBSTRUCTIONS TO VISIBILITY.

FLZ001>010-012>015-112-114-115-240200-
PANHANDLE FLORIDA

CITY           SKY/WX    TMP DP  RH WIND       PRES   REMARKS
PENSACOLA      MOCLDY    71  63  75 SE12      30.25R
PENSACOLA NAS  PTCLDY    69  63  81 SE7       30.24R
MILTON NAS     PTCLDY    69  62  78 SE8       30.26
CRESTVIEW      CLOUDY    68  65  90 CALM      30.28R
DUKE FIELD     MOCLDY    72  60  67 SE10      30.26R
VALPARAISO     PTCLDY    70  63  77 E9        30.26R
MARY ESTHER    PTCLDY    69  64  83 E6        30.24R
PANAMA CITY    MOCLDY    71  59  65 NE9       30.26R
TYNDALL AFB    PTCLDY    70  61  72 E3        30.27R
APALACHICOLA   PTCLDY    71  61  70 E15G23    30.27R

STATION/POSITION SKY/WX   TEMP    WIND        PRES    WAVE   SWELL
                          AIR SEA DIR/SP/G            HT/PER HT/PER
                          (F)     (DEG/KT/KT) (MB)    (FT/S) (FT/S)
30.1N   87.6W              69 69  130/ 14/ 17 1023.3    4/ 6   2/16
29.2N   88.2W              72 73  120/ 16/ 17 1022.8R   4/ 6
28.8N   86.0W              71 72              1023.4    4/ 6
PANAMA CITY BEAC           71 70  100/  8/ 11 1025.0R
TOWER C                    69      90/ 21/ 23 1025.6R
28.5N   84.5W              71 69   70/ 16/ 17 1023.6    2/ 5

$$
FLZ011-016>038-118-127-128-134-139-239-240200-
NORTH FLORIDA

CITY           SKY/WX    TMP DP  RH WIND       PRES   REMARKS
MARIANNA       CLOUDY    69  57  65 E10       30.30R
TALLAHASSEE    CLOUDY    68  55  63 E10       30.32R
PERRY          CLEAR     67  55  64 E8        30.35R
CROSS CITY     CLEAR     66  52  59 E10G17    30.34R
LAKE CITY      FAIR      61  55  82 E6        30.37R
GAINESVILLE    CLEAR     63  51  65 E6        30.35R
WILLISTON      CLEAR     68  54  60 NE9       30.34R
PALATKA        FAIR      64  54  68 E8        30.36S
MAYPORT NAS    MOCLDY    63  59  87 NE15      30.37F
JACKSONVILLE   PTCLDY    60  57  89 NE10      30.38S
JAX NAS        PTCLDY    64  57  78 NE13      30.38S
ST AUGUSTINE   CLEAR     66  57  72 E12       30.37S

STATION/POSITION SKY/WX   TEMP    WIND        PRES    WAVE   SWELL
                          AIR SEA DIR/SP/G            HT/PER HT/PER
                          (F)     (DEG/KT/KT) (MB)    (FT/S) (FT/S)
SHELL POINT      NOT AVBL
KEATON BEACH               67      70/ 11/ 14 1026.6R
CEDAR KEY                  70      80/ 24/ 26 1026.2R
FERNANDINA                 62 64   40/  9/ 16 1029.8S
30.7N   81.3W                 63                N/A     7/ 7   2/11
MAYPORT                    63 64   50/ 14/ 17 1028.8F
31.4N   80.9W              60 62   60/ 23/ 27 1029.2    7/ 7   2/11
ST AUGUSTINE               66 65   70/ 15/ 16 1029.1R

$$
FLZ040-043>046-052-053-057-058-063-144-240200-
INTERIOR CENTRAL FLORIDA

CITY           SKY/WX    TMP DP  RH WIND       PRES   REMARKS
OCALA          CLEAR     66  50  55 NE3       30.34R
THE VILLAGES     N/A     66  57  72 MISG      30.24R
LEESBURG       CLEAR     68  56  65 NE12      30.34R
SANFORD        CLOUDY    67  57  70 E10       30.32R
ORLANDO EXEC   CLEAR     69  57  65 NE16G23   30.32R
ORLANDO INTL   PTCLDY    69  57  65 NE12      30.32R
KISSIMMEE      PTCLDY    69  59  70 E8        30.32R
WINTER HAVEN   CLEAR     67  57  70 E14       30.32R
LAKELAND       PTCLDY    66  61  82 E13       30.31R
BARTOW         CLOUDY    66  59  77 NE10      30.31R
OKEECHOBEE     CLOUDY   N/A N/A N/A NE12G20   30.28R

$$
FLZ041-047-054-059-064-141-147-240200-
EAST CENTRAL FLORIDA

CITY           SKY/WX    TMP DP  RH WIND       PRES   REMARKS
DAYTONA BEACH  CLEAR     67  56  67 NE18      30.34R
DELAND         PTCLDY    66  57  72 NE8       30.33R
NEW SMYRNA BEA PTCLDY    68  57  68 E14G25    30.34S
JFK SPACE CTR  PTCLDY    69  58  69 E15G22    30.30R
TITUSVILLE     PTCLDY    70  57  64 E18       30.32R
CAPE CANAVERAL CLEAR     69  58  67 E18G28    30.30R
PATRICK AFB    PTCLDY    69  61  76 E22G28    30.29R
MELBOURNE      MOCLDY    70  61  73 NE22G28   30.30R
VERO BEACH     CLOUDY    67  64  90 NE12G21   30.29R FOG
FT PIERCE      LGT RAIN  70  62  76 E10       30.27R
STUART         RAIN      73  64  73 E18G32    30.27R

STATION/POSITION SKY/WX   TEMP    WIND        PRES    WAVE   SWELL
                          AIR SEA DIR/SP/G            HT/PER HT/PER
                          (F)     (DEG/KT/KT) (MB)    (FT/S) (FT/S)
TRIDENT PIER               69 70   50/ 15/ 23 1027.5R
28.4N   80.5W                 70                N/A     5/ 7   2/11
27.5N   80.2W                 70                N/A     8/11   3/11

$$
FLZ050-056-061-142-242-148-248-149-249-151-251-155-255-
160-260-240200-
WEST CENTRAL FLORIDA

CITY           SKY/WX    TMP DP  RH WIND       PRES   REMARKS
CRYSTAL RIVER  FAIR      68  52  56 E10G18    30.32R
INVERNESS      FAIR      66  55  68 NE6       30.34R
BROOKSVILLE    CLEAR     67  58  72 E12       30.31R
CLEARWATER AIR CLOUDY    70  61  73 E14G23    30.28R
ST PETE CLEARW MOCLDY    71  61  70 E13G26    30.29R
TAMPA INTL     PTCLDY    72  60  66 E12G22    30.30R
TAMPA EXEC     MOCLDY    70  59  68 E10G20    30.30R
PLANT CITY     MOCLDY    70  61  73 E12G21    30.32R
MACDILL AFB    PTCLDY    70  63  78 E21G26    30.28R
PETER O KNIGHT CLOUDY    72  63  73 E14G23    30.30R
ST PETERSBURG  PTCLDY    70  64  81 E24       30.28R
SARASOTA       CLEAR     69  61  75 E20G25    30.25R
VENICE         FAIR      73  61  64 E20G25    30.26R

STATION/POSITION SKY/WX   TEMP    WIND        PRES    WAVE   SWELL
                          AIR SEA DIR/SP/G            HT/PER HT/PER
                          (F)     (DEG/KT/KT) (MB)    (FT/S) (FT/S)
27.3N   84.2W                 70                N/A     2/ 5
CLEARWATER BEACH NOT AVBL
MIDDLE TAMPA BAY           70     110/ 18/ 25 1025.5R
VENICE                     73 69   60/ 12/ 14 1023.1R

$$
FLZ066-069-070-075>078-162-262-165-265-240200-
SOUTHWEST FLORIDA AND KEYS

CITY           SKY/WX    TMP DP  RH WIND       PRES   REMARKS
PUNTA GORDA    CLEAR     70  62  76 E12       30.27R
FT MYERS       CLEAR     72  64  76 E13       30.24R
SOUTHWEST INTL PTCLDY    70  63  78 E13       30.25R
NAPLES         LGT RAIN  72  66  81 NE20      30.21S
IMMOKALEE      CLOUDY    70  63  78 E9G16     30.24R
MARATHON       CLOUDY    68  64  87 E7        30.17F
KEY WEST NAS   TSTM      71  60  68 NE5       30.14F
KEY WEST INTL  PTCLDY    72  59  63 VRB5      30.15F

STATION/POSITION SKY/WX   TEMP    WIND        PRES    WAVE   SWELL
                          AIR SEA DIR/SP/G            HT/PER HT/PER
                          (F)     (DEG/KT/KT) (MB)    (FT/S) (FT/S)
NAPLES                        73              1023.1R
26.0N   85.6W              73 74   60/  8/ 10 1022.7R   1/ 5   2/ 5
DRY TORTUGAS               72      70/ 11/ 12 1021.9R
SAND KEY                   72      80/ 13/ 15 1021.6F
LONG KEY                   75 75   70/  7/  8 1022.5R

$$
FLZ067-068-071>074-168-172>174-240200-
SOUTHEAST FLORIDA

CITY           SKY/WX    TMP DP  RH WIND       PRES   REMARKS
W PALM BEACH   MOCLDY    71  61  70 E21G28    30.25R
BOCA RATON     CLOUDY    72  64  78 NE18G26   30.23R
FT LAUDER-EXEC TSTM      72  65  78 NE13G21   30.23R
FT LAUDERDALE  LGT RAIN  71  67  87 NE17G25   30.21R
POMPANO BEACH  LGT RAIN  73  32  22 NE18G30   30.23R
PEMBROKE PINES TSTM      71  66  84 N16G22    30.24R
OPA LOCKA      TSTM      72  65  78 VRB6      30.22R
MIAMI          TSTM      72  65  78 NE13      30.22R FOG
WEST KENDALL   CLOUDY    72  63  73 E9        30.21S
HOMESTEAD      MOCLDY    71  67  86 NE12      30.19F

STATION/POSITION SKY/WX   TEMP    WIND        PRES    WAVE   SWELL
                          AIR SEA DIR/SP/G            HT/PER HT/PER
                          (F)     (DEG/KT/KT) (MB)    (FT/S) (FT/S)
PORT EVERGLADES            74      60/ 22/ 30 1022.1R
VIRGINIA KEY               74      80/ 16/ 19 1022.7R
LAKE WORTH                         70/ 24/ 29   N/A
FOWEY ROCKS                72 75   50/ 25/ 26 1022.8R
SETTLEMENT POINT           71      60/ 28/ 31 1024.3R

$$




USA.gov is the U.S. government's official web portal to all federal, state and local government web resources and services.